Location: Waldport
(44.4270°N, 124.0680°W)
Time: 22:19:21
(UTC-07:00)

Meteor 1-11 - Visible Passes

Search period start: 22 March 2019 00:00
Search period end: 01 April 2019 00:00
Orbit: 842 x 885 km, 81.2° (Epoch: 22 March)

Date Brightness Start Highest point End Pass type
(mag) Time Alt. Az. Time Alt. Az. Time Alt. Az.
22 Mar 6.0 21:43:00 10° NNE 21:45:44 18° NE 21:45:44 18° NE visible
22 Mar 5.8 23:25:05 10° NNW 23:28:03 31° NNW 23:28:03 31° NNW visible
23 Mar 5.9 21:34:57 10° NNE 21:38:01 18° NE 21:38:01 18° NE visible
23 Mar 5.6 23:17:02 10° NNW 23:20:19 35° NNW 23:20:19 35° NNW visible
24 Mar 5.8 21:26:54 10° NNE 21:30:19 19° ENE 21:30:19 19° ENE visible
24 Mar 5.4 23:08:57 10° NNW 23:12:38 40° NNW 23:12:38 40° NNW visible
25 Mar 5.8 21:18:50 10° NNE 21:22:38 19° ENE 21:22:38 19° ENE visible
25 Mar 5.1 23:00:53 10° NNW 23:04:57 46° NNW 23:04:57 46° NNW visible
26 Mar 5.7 21:10:47 10° NNE 21:14:43 19° ENE 21:14:59 18° ENE visible
26 Mar 4.9 22:52:49 10° NNW 22:57:18 53° NW 22:57:18 53° NW visible
27 Mar 5.7 21:02:44 10° NNE 21:06:37 18° ENE 21:07:22 18° ENE visible
27 Mar 4.6 22:44:45 10° NNW 22:49:40 61° NW 22:49:40 61° NW visible
28 Mar 5.7 20:54:40 10° NNE 20:58:33 18° ENE 20:59:45 17° E visible
28 Mar 4.4 22:36:41 10° NNW 22:42:04 68° WNW 22:42:04 68° WNW visible
29 Mar 5.7 20:46:37 10° NNE 20:50:29 18° ENE 20:52:11 16° E visible
29 Mar 4.3 22:28:37 10° NNW 22:34:18 70° W 22:34:30 69° WSW visible
30 Mar 5.7 20:38:34 10° NNE 20:42:24 18° ENE 20:44:39 15° E visible
30 Mar 4.3 22:20:33 10° NNW 22:26:14 70° W 22:26:58 62° SW visible
31 Mar 5.7 20:30:31 10° NNE 20:34:19 18° ENE 20:37:08 13° E visible
31 Mar 4.4 22:12:29 10° NNW 22:18:09 71° W 22:19:28 52° SSW visible
